• In Portugal
  • List of Countries
  • For 7 days
  • Water Temperature
  • Satellite Maps
  • Weather Map
  • Weather Widgets
  • user-avatar
    Login

    Hourly Weather Namibe

    Today, 23 February, Friday

    Time Temperature Precipitation Wind Pressure Humidity
    00:00 +27°C° 0 mm 3 mps 755 mmHg 77%
    01:00 +27°C° 0 mm 2 mps 755 mmHg 76%
    02:00 +27°C° 0 mm 3 mps 755 mmHg 77%
    03:00 +27°C° 0 mm 3 mps 755 mmHg 78%
    04:00 +27°C° 0 mm 3 mps 754 mmHg 78%
    05:00 +27°C° 0 mm 3 mps 755 mmHg 79%
    06:00 +27°C° 0 mm 3 mps 755 mmHg 79%
    07:00 +27°C° 0 mm 3 mps 755 mmHg 78%
    08:00 +28°C° 0 mm 2 mps 755 mmHg 74%
    09:00 +29°C° 0 mm 2 mps 755 mmHg 71%
    10:00 +30°C° 0 mm 2 mps 755 mmHg 67%
    11:00 +31°C° 0 mm 3 mps 755 mmHg 62%
    12:00 +33°C° 0 mm 4 mps 755 mmHg 58%
    13:00 +35°C° 0 mm 5 mps 754 mmHg 50%
    14:00 +34°C° 0 mm 5 mps 754 mmHg 53%
    15:00 +33°C° 0 mm 5 mps 754 mmHg 55%
    16:00 +33°C° 0 mm 6 mps 754 mmHg 57%
    17:00 +32°C° 0 mm 5 mps 754 mmHg 62%
    18:00 +29°C° 0 mm 4 mps 755 mmHg 66%
    19:00 +28°C° 0 mm 4 mps 755 mmHg 70%
    20:00 +28°C° 0.5 mm 3 mps 756 mmHg 72%
    21:00 +28°C° 0.5 mm 3 mps 756 mmHg 74%
    22:00 +27°C° 0.5 mm 2 mps 757 mmHg 77%
    23:00 +27°C° 0.7 mm 2 mps 757 mmHg 78%

    Tomorrow, 24 February, Saturday

    Time Temperature Precipitation Wind Pressure Humidity
    00:00 +27°C° 0.7 mm 2 mps 757 mmHg 78%
    01:00 +27°C° 0.7 mm 2 mps 757 mmHg 79%
    02:00 +27°C° 0.5 mm 2 mps 757 mmHg 80%
    03:00 +27°C° 0.5 mm 1 mps 756 mmHg 80%
    04:00 +27°C° 0.5 mm 1 mps 756 mmHg 80%
    05:00 +27°C° 0.2 mm 1 mps 757 mmHg 82%
    06:00 +27°C° 0.2 mm 2 mps 757 mmHg 83%
    07:00 +27°C° 0.2 mm 2 mps 757 mmHg 85%
    08:00 +27°C° 0.1 mm 2 mps 757 mmHg 82%
    09:00 +28°C° 0.1 mm 2 mps 757 mmHg 80%
    10:00 +28°C° 0.1 mm 2 mps 758 mmHg 77%
    11:00 +29°C° 0 mm 2 mps 757 mmHg 73%
    12:00 +30°C° 0 mm 3 mps 757 mmHg 70%
    13:00 +31°C° 0 mm 3 mps 756 mmHg 66%
    14:00 +32°C° 0 mm 4 mps 756 mmHg 65%
    15:00 +32°C° 0 mm 4 mps 755 mmHg 63%
    16:00 +33°C° 0 mm 5 mps 755 mmHg 61%
    17:00 +32°C° 0 mm 5 mps 755 mmHg 64%
    18:00 +30°C° 0 mm 5 mps 756 mmHg 67%
    19:00 +29°C° 0 mm 4 mps 756 mmHg 70%
    20:00 +28°C° 0 mm 4 mps 756 mmHg 71%
    21:00 +28°C° 0 mm 4 mps 757 mmHg 73%
    22:00 +28°C° 0 mm 3 mps 757 mmHg 74%
    23:00 +28°C° 0 mm 3 mps 757 mmHg 74%

    Day after tomorrow, 25 February, Sunday

    Time Temperature Precipitation Wind Pressure Humidity
    00:00 +27°C° 0 mm 3 mps 757 mmHg 75%
    01:00 +27°C° 0 mm 3 mps 757 mmHg 75%
    02:00 +27°C° 0 mm 2 mps 756 mmHg 75%
    03:00 +27°C° 0 mm 2 mps 756 mmHg 75%
    04:00 +27°C° 0 mm 2 mps 756 mmHg 74%
    05:00 +27°C° 0 mm 1 mps 756 mmHg 74%
    06:00 +28°C° 0 mm 1 mps 757 mmHg 75%
    07:00 +28°C° 0 mm 1 mps 757 mmHg 75%
    08:00 +28°C° 0.1 mm 1 mps 757 mmHg 73%
    09:00 +29°C° 0.1 mm 2 mps 758 mmHg 71%
    10:00 +29°C° 0.1 mm 2 mps 758 mmHg 69%
    11:00 +30°C° 0 mm 2 mps 757 mmHg 69%
    12:00 +30°C° 0 mm 3 mps 757 mmHg 69%
    13:00 +30°C° 0 mm 3 mps 756 mmHg 68%
    14:00 +30°C° 0 mm 4 mps 756 mmHg 69%
    15:00 +30°C° 0 mm 4 mps 755 mmHg 71%
    16:00 +29°C° 0 mm 4 mps 755 mmHg 72%
    17:00 +29°C° 0 mm 4 mps 755 mmHg 75%
    18:00 +28°C° 0 mm 3 mps 756 mmHg 78%
    19:00 +27°C° 0 mm 3 mps 756 mmHg 80%
    20:00 +27°C° 0 mm 3 mps 757 mmHg 81%
    21:00 +27°C° 0 mm 2 mps 758 mmHg 81%
    22:00 +27°C° 0 mm 2 mps 758 mmHg 81%
    23:00 +27°C° 0 mm 2 mps 758 mmHg 81%

    26 February, Monday

    Time Temperature Precipitation Wind Pressure Humidity
    00:00 +27°C° 0 mm 2 mps 758 mmHg 82%
    01:00 +27°C° 0 mm 2 mps 758 mmHg 82%
    02:00 +27°C° 0 mm 2 mps 757 mmHg 83%
    03:00 +26°C° 0 mm 2 mps 757 mmHg 83%
    04:00 +26°C° 0 mm 2 mps 756 mmHg 84%
    05:00 +26°C° 0 mm 1 mps 757 mmHg 84%
    06:00 +26°C° 0 mm 1 mps 757 mmHg 84%
    07:00 +27°C° 0 mm 1 mps 757 mmHg 84%
    08:00 +27°C° 0 mm 1 mps 758 mmHg 80%
    09:00 +28°C° 0 mm 1 mps 758 mmHg 76%
    10:00 +29°C° 0 mm 2 mps 758 mmHg 72%
    11:00 +30°C° 0 mm 2 mps 758 mmHg 69%
    12:00 +31°C° 0 mm 3 mps 757 mmHg 66%
    13:00 +32°C° 0 mm 4 mps 757 mmHg 63%
    14:00 +32°C° 0 mm 4 mps 756 mmHg 62%
    15:00 +33°C° 0 mm 5 mps 756 mmHg 62%
    16:00 +33°C° 0 mm 5 mps 755 mmHg 62%
    17:00 +30°C° 0 mm 5 mps 756 mmHg 66%
    18:00 +29°C° 0 mm 5 mps 756 mmHg 71%
    19:00 +28°C° 0 mm 5 mps 756 mmHg 75%
    20:00 +28°C° 0 mm 4 mps 757 mmHg 76%
    21:00 +27°C° 0 mm 4 mps 757 mmHg 76%
    22:00 +27°C° 0 mm 4 mps 758 mmHg 77%
    23:00 +27°C° 0 mm 4 mps 758 mmHg 77%

    27 February, Tuesday

    Time Temperature Precipitation Wind Pressure Humidity
    00:00 +27°C° 0 mm 3 mps 757 mmHg 77%
    01:00 +27°C° 0 mm 3 mps 757 mmHg 77%
    02:00 +27°C° 0 mm 3 mps 757 mmHg 77%
    03:00 +26°C° 0 mm 3 mps 756 mmHg 78%
    04:00 +26°C° 0 mm 3 mps 756 mmHg 78%
    05:00 +26°C° 0 mm 3 mps 756 mmHg 78%
    06:00 +26°C° 0 mm 3 mps 757 mmHg 78%
    07:00 +26°C° 0 mm 3 mps 757 mmHg 78%
    08:00 +28°C° 0 mm 3 mps 757 mmHg 71%
    09:00 +29°C° 0 mm 3 mps 757 mmHg 63%
    10:00 +31°C° 0 mm 3 mps 758 mmHg 56%
    11:00 +33°C° 0 mm 4 mps 757 mmHg 49%
    12:00 +35°C° 0 mm 4 mps 756 mmHg 43%
    13:00 +36°C° 0 mm 5 mps 756 mmHg 36%
    14:00 +36°C° 0 mm 6 mps 755 mmHg 37%
    15:00 +35°C° 0 mm 6 mps 755 mmHg 39%
    16:00 +35°C° 0 mm 7 mps 754 mmHg 40%
    17:00 +33°C° 0 mm 7 mps 755 mmHg 44%
    18:00 +32°C° 0 mm 6 mps 755 mmHg 48%
    19:00 +29°C° 0 mm 6 mps 756 mmHg 52%
    20:00 +29°C° 0 mm 6 mps 756 mmHg 53%
    21:00 +28°C° 0 mm 5 mps 757 mmHg 53%
    22:00 +28°C° 0 mm 4 mps 758 mmHg 53%
    23:00 +27°C° 0 mm 4 mps 758 mmHg 55%

    28 February, Wednesday

    Time Temperature Precipitation Wind Pressure Humidity
    00:00 +27°C° 0 mm 4 mps 758 mmHg 56%
    01:00 +26°C° 0 mm 4 mps 758 mmHg 57%
    02:00 +26°C° 0 mm 3 mps 757 mmHg 60%
    03:00 +25°C° 0 mm 3 mps 757 mmHg 64%
    04:00 +25°C° 0 mm 3 mps 757 mmHg 67%
    05:00 +25°C° 0 mm 3 mps 757 mmHg 68%
    06:00 +25°C° 0 mm 3 mps 758 mmHg 70%
    07:00 +24°C° 0 mm 3 mps 758 mmHg 72%
    08:00 +26°C° 0 mm 3 mps 758 mmHg 64%
    09:00 +27°C° 0 mm 2 mps 758 mmHg 56%
    10:00 +29°C° 0 mm 2 mps 758 mmHg 47%
    11:00 +30°C° 0 mm 3 mps 758 mmHg 44%
    12:00 +33°C° 0 mm 4 mps 757 mmHg 40%
    13:00 +34°C° 0 mm 5 mps 757 mmHg 37%
    14:00 +34°C° 0 mm 6 mps 756 mmHg 40%
    15:00 +33°C° 0 mm 6 mps 756 mmHg 43%
    16:00 +33°C° 0 mm 6 mps 755 mmHg 46%
    17:00 +30°C° 0 mm 7 mps 756 mmHg 52%
    18:00 +29°C° 0 mm 7 mps 756 mmHg 58%
    19:00 +27°C° 0 mm 7 mps 757 mmHg 65%
    20:00 +27°C° 0 mm 6 mps 757 mmHg 65%
    21:00 +26°C° 0 mm 6 mps 758 mmHg 66%
    22:00 +26°C° 0 mm 5 mps 758 mmHg 66%
    23:00 +26°C° 0 mm 5 mps 758 mmHg 66%
    Show more